Date String (YYYY-MM-DD hh:mm:ss) UTC,Instrument flags,Ambient pressure (hPa),Sample flow (lpm),Bypass flow (lpm),Sample temperature (°C),Ambient temperature (°C),ASC tube jacket temperature (°C),LED temperature (°C),Box temperature (°C),Sample RH (%),Span deviation,Mass concentration (μg/m³),Mass concentration (μg/m³),Mass concentration (μg/m³)
DateTimeUTC,F1_M11,P_M11,Q1_M11,Q2_M11,T1_M11,T2_M11,T3_M11,T4_M11,T5_M11,U1_M11,ZSPAN_M11,X0_M11,X2_M11,X1_M11
2023-01-15 19:00:00,,0808.9,5.01,0.00,22.8,21.5,00.0,31.7,24.7,13.8,0000.0,0003.56,0003.24,0003.16
2023-01-15 19:01:00,,0808.8,5.02,0.00,22.8,21.6,00.0,31.7,24.7,13.8,0000.0,0003.58,0003.25,0003.17
2023-01-15 19:02:00,,0808.8,5.01,0.00,22.8,21.6,00.0,31.7,24.7,13.9,0000.0,0003.93,0003.25,0003.17
2023-01-15 19:03:00,,0808.7,4.99,0.00,22.8,21.5,00.0,31.7,24.7,13.9,0000.0,0003.97,0003.26,0003.18
2023-01-15 19:04:00,,0808.7,5.00,0.00,22.8,21.6,00.0,31.7,24.7,14.1,0000.0,0004.18,0003.27,0003.19
2023-01-15 19:05:00,,0808.7,5.00,0.00,22.8,21.6,00.0,31.7,24.7,14.2,0000.0,0005.37,0003.30,0003.20
2023-01-15 19:06:00,,0808.7,5.00,0.00,22.8,21.6,00.0,31.7,24.7,14.0,0000.0,0006.03,0003.32,0003.21
2023-01-15 19:07:00,,0808.6,5.01,0.00,22.8,21.6,00.0,31.7,24.7,14.2,0000.0,0006.05,0003.33,0003.22
2023-01-15 19:08:00,,0808.6,5.00,0.00,22.8,21.6,00.0,31.7,24.7,14.0,0000.0,0007.25,0003.38,0003.24
2023-01-15 19:09:00,,0808.6,4.99,0.00,22.8,21.6,00.0,31.7,24.7,14.1,0000.0,0007.41,0003.39,0003.24
2023-01-15 19:10:00,,0808.6,5.00,0.00,22.8,21.6,00.0,31.7,24.7,14.0,0000.0,0007.63,0003.40,0003.24
2023-01-15 19:11:00,,0808.6,5.00,0.00,22.9,21.6,00.0,31.7,24.7,14.1,0000.0,0007.74,0003.43,0003.25
2023-01-15 19:12:00,,0808.5,4.99,0.00,22.9,21.6,00.0,31.7,24.7,14.0,0000.0,0008.76,0003.50,0003.27
2023-01-15 19:13:00,,0808.5,4.98,0.00,22.9,21.7,00.0,31.7,24.7,14.2,0000.0,0008.73,0003.52,0003.29
2023-01-15 19:14:00,,0808.4,5.00,0.00,22.9,21.7,00.0,31.7,24.7,14.1,0000.0,0009.57,0003.59,0003.30
2023-01-15 19:15:00,,0808.4,5.01,0.00,22.9,21.7,00.0,31.7,24.8,14.1,0000.0,0010.53,0003.65,0003.30
2023-01-15 19:16:00,,0808.5,4.99,0.00,22.9,21.7,00.0,31.7,24.8,14.1,0000.0,0010.10,0003.67,0003.31
2023-01-15 19:17:00,,0808.5,5.00,0.00,22.9,21.7,00.0,31.7,24.8,13.9,0000.0,0009.85,0003.66,0003.30
2023-01-15 19:18:00,,0808.4,5.01,0.00,22.9,21.7,00.0,31.7,24.8,13.8,0000.0,0009.93,0003.68,0003.29
2023-01-15 19:19:00,,0808.3,5.01,0.00,22.9,21.7,00.0,31.7,24.8,13.6,0000.0,0009.26,0003.63,0003.28
2023-01-15 19:20:00,,0808.3,5.00,0.00,22.9,21.8,00.0,31.7,24.8,13.4,0000.0,0009.28,0003.64,0003.26
2023-01-15 19:21:00,,0808.3,4.99,0.00,23.0,21.8,00.0,31.7,24.8,13.8,0000.0,0009.33,0003.68,0003.25
2023-01-15 19:22:00,,0808.3,5.01,0.00,23.0,21.8,00.0,31.8,24.8,14.1,0000.0,0010.57,0003.67,0003.24
2023-01-15 19:23:00,,0808.2,5.00,0.00,23.0,21.8,00.0,31.8,24.9,13.8,0000.0,0010.07,0003.63,0003.23
2023-01-15 19:24:00,,0808.1,4.99,0.00,23.0,21.8,00.0,31.8,24.8,13.6,0000.0,0009.81,0003.60,0003.21
2023-01-15 19:25:00,,0808.1,4.99,0.00,23.0,21.8,00.0,31.8,24.8,14.3,0000.0,0009.23,0003.57,0003.19
2023-01-15 19:26:00,,0808.1,4.99,0.00,23.0,21.8,00.0,31.8,24.9,14.0,0000.0,0008.20,0003.52,0003.18
2023-01-15 19:27:00,,0808.1,5.01,0.00,23.0,21.9,00.0,31.8,24.9,13.6,0000.0,0008.01,0003.49,0003.16
2023-01-15 19:28:00,,0808.0,5.01,0.00,23.0,21.9,00.0,31.8,24.9,13.4,0000.0,0008.00,0003.50,0003.16
2023-01-15 19:29:00,,0808.0,5.00,0.00,23.1,21.9,00.0,31.8,24.9,13.5,0000.0,0007.95,0003.47,0003.14
2023-01-15 19:30:00,,0808.0,5.00,0.00,23.1,21.9,00.0,31.8,24.9,13.6,0000.0,0008.32,0003.48,0003.12
2023-01-15 19:31:00,,0807.9,5.00,0.00,23.1,21.9,00.0,31.8,24.9,13.3,0000.0,0009.28,0003.52,0003.11
2023-01-15 19:32:00,,0807.9,5.00,0.00,23.1,22.0,00.0,31.9,24.9,13.4,0000.0,0009.19,0003.49,0003.05
2023-01-15 19:33:00,,0807.8,4.98,0.00,23.1,22.0,00.0,31.9,24.9,13.0,0000.0,0007.89,0003.44,0002.98
2023-01-15 19:34:00,,0807.8,4.99,0.00,23.1,22.0,00.0,31.9,24.9,13.0,0000.0,0007.55,0003.38,0002.89
2023-01-15 19:35:00,,0807.8,5.01,0.00,23.2,22.0,00.0,31.9,24.9,13.0,0000.0,0007.69,0003.38,0002.83
2023-01-15 19:36:00,,0807.8,5.00,0.00,23.2,22.1,00.0,31.9,25.0,13.1,0000.0,0007.62,0003.32,0002.76
2023-01-15 19:37:00,,0807.8,5.00,0.00,23.2,22.1,00.0,31.9,25.0,13.4,0000.0,0007.44,0003.25,0002.67
2023-01-15 19:38:00,,0807.7,5.01,0.00,23.2,22.1,00.0,31.9,25.0,13.2,0000.0,0007.32,0003.17,0002.57
2023-01-15 19:39:00,,0807.8,5.00,0.00,23.2,22.1,00.0,31.9,25.0,13.2,0000.0,0007.24,0003.08,0002.45
2023-01-15 19:40:00,,0807.7,5.00,0.00,23.3,22.1,00.0,32.0,25.0,13.2,0000.0,0007.00,0002.93,0002.35
2023-01-15 19:41:00,,0807.7,4.99,0.00,23.3,22.2,00.0,32.0,25.1,12.7,0000.0,0006.55,0002.78,0002.23
2023-01-15 19:42:00,,0807.7,4.99,0.00,23.3,22.2,00.0,32.0,25.1,12.8,0000.0,0004.15,0002.54,0002.12
2023-01-15 19:43:00,,0807.7,5.00,0.00,23.3,22.2,00.0,32.0,25.1,13.2,0000.0,0003.66,0002.37,0002.03
2023-01-15 19:44:00,,0807.7,5.00,0.00,23.3,22.2,00.0,32.0,25.1,13.1,0000.0,0003.36,0002.23,0001.94
2023-01-15 19:45:00,,0807.6,5.00,0.00,23.3,22.2,00.0,32.0,25.1,13.1,0000.0,0003.08,0002.14,0001.87
2023-01-15 19:46:00,,0807.6,4.99,0.00,23.3,22.2,00.0,32.1,25.1,12.7,0000.0,0002.57,0001.96,0001.76
2023-01-15 19:47:00,,0807.7,5.00,0.00,23.3,22.2,00.0,32.1,25.2,12.8,0000.0,0002.26,0001.82,0001.63
2023-01-15 19:48:00,,0807.7,4.99,0.00,23.4,22.2,00.0,32.1,25.2,12.9,0000.0,0002.22,0001.76,0001.57
2023-01-15 19:49:00,,0807.6,4.99,0.00,23.4,22.2,00.0,32.1,25.1,13.1,0000.0,0003.30,0001.76,0001.55
2023-01-15 19:50:00,,0807.7,5.01,0.00,23.4,22.2,00.0,32.1,25.1,13.0,0000.0,0003.76,0001.79,0001.55
2023-01-15 19:51:00,,0807.7,4.99,0.00,23.4,22.3,00.0,32.1,25.2,13.0,0000.0,0004.02,0001.92,0001.60
2023-01-15 19:52:00,,0807.7,5.01,0.00,23.4,22.3,00.0,32.1,25.2,12.9,0000.0,0004.29,0002.05,0001.66
2023-01-15 19:53:00,,0807.7,5.00,0.00,23.4,22.3,00.0,32.2,25.2,13.1,0000.0,0004.27,0002.07,0001.71
2023-01-15 19:54:00,,0807.7,5.00,0.00,23.4,22.3,00.0,32.2,25.2,13.0,0000.0,0004.29,0002.10,0001.75
2023-01-15 19:55:00,,0807.7,5.01,0.00,23.4,22.3,00.0,32.2,25.2,13.2,0000.0,0004.46,0002.20,0001.81
2023-01-15 19:56:00,,0807.7,5.00,0.00,23.5,22.3,00.0,32.2,25.3,13.1,0000.0,0004.71,0002.30,0001.87
2023-01-15 19:57:00,,0807.6,5.00,0.00,23.5,22.3,00.0,32.2,25.3,13.4,0000.0,0004.86,0002.41,0001.95
2023-01-15 19:58:00,,0807.5,5.00,0.00,23.5,22.3,00.0,32.2,25.3,13.3,0000.0,0004.93,0002.49,0002.04
2023-01-15 19:59:00,,0807.5,5.00,0.00,23.5,22.3,00.0,32.2,25.3,13.6,0000.0,0004.94,0002.51,0002.08
